CW3175 Weather Reports


time (UTC)temp
F
wind
direction
speed
knots
gust
knots
rain 1hr
in
rain 24hr
in
rain mn
in
humidity
%
barometer
mb
20160601033152 64 125 0.9 6.1 0.00 0.51 0.00 91 1012.9
20160601031647 64 121 0.9 8.7 0.00 0.51 0.00 90 1012.9
20160601030147 64 161 0.9 5.2 0.00 0.51 0.00 88 1012.6
20160601024651 65 146 1.7 9.6 0.00 0.51 0.00 87 1012.4
20160601023147 65 121 0.0 0.0 0.00 0.51 0.00 89 1012.3
20160601021647 65 124 0.0 2.6 0.00 0.51 0.00 89 1012.1
20160601020146 65 150 0.9 4.3 0.00 0.51 0.00 88 1011.9
20160601014646 65 103 0.0 3.5 0.00 0.51 0.00 88 1011.9
20160601013141 65 109 0.0 3.5 0.00 0.51 0.00 87 1012.0
20160601011637 66 62 0.0 1.7 0.00 0.51 0.00 87 1011.9
20160601010123 66 62 0.0 0.0 0.00 0.51 0.00 87 1012.0
20160601004619 67 62 0.0 0.9 0.00 0.51 0.00 87 1012.2
20160601003109 67 62 0.0 0.0 0.00 0.51 0.00 89 1012.4
20160601001601 67 62 0.0 0.0 0.01 0.51 0.00 89 1012.4
20160601000100 67 62 0.0 6.1 0.04 0.51 0.00 90 1012.1
20160531234556 67 53 1.7 7.0 0.08 0.51 0.51 91 1012.4
20160531233057 67 42 1.7 7.8 0.11 0.51 0.51 93 1012.5
20160531231553 67 39 3.5 9.6 0.12 0.50 0.50 94 1012.9
20160531230041 67 107 1.7 7.0 0.21 0.47 0.47 94 1013.3
20160531224541 67 0 2.6 6.1 0.18 0.43 0.43 94 1013.7
20160531223032 67 0 3.5 10.4 0.16 0.40 0.40 94 1014.1
20160531221531 67 350 1.7 13.0 0.16 0.38 0.38 93 1014.4
20160531220029 67 304 4.3 12.2 0.06 0.26 0.26 92 1013.7
20160531214527 67 314 3.5 11.3 0.15 0.25 0.25 92 1013.9
20160531213027 66 315 3.5 12.2 0.24 0.24 0.24 91 1013.7
20160531211527 67 0 5.2 11.3 0.22 0.22 0.22 90 1013.4
20160531210022 68 349 3.5 8.7 0.20 0.20 0.20 87 1014.2
20160531204522 71 245 3.5 16.5 0.10 0.10 0.11 80 1013.1
20160531203021 74 24 7.0 20.0 0.00 0.00 0.00 61 1012.5
20160531201520 78 260 2.6 11.3 0.00 0.00 0.00 46 1011.4
20160531200019 79 53 1.7 9.6 0.00 0.00 0.00 43 1011.3
20160531194516 80 89 1.7 9.6 0.00 0.00 0.00 44 1011.4
20160531193013 78 119 3.5 10.4 0.00 0.00 0.00 45 1011.8
20160531191514 78 69 2.6 8.7 0.00 0.00 0.00 45 1011.9
20160531190009 78 98 2.6 7.8 0.00 0.00 0.00 46 1011.9
20160531184508 78 86 1.7 7.8 0.00 0.00 0.00 46 1012.2
20160531183006 77 78 1.7 7.8 0.00 0.00 0.00 48 1012.4
20160531181506 77 27 1.7 9.6 0.00 0.00 0.00 51 1012.7
20160531180007 75 106 1.7 6.1 0.00 0.00 0.00 52 1012.8
20160531174502 77 96 1.7 7.8 0.00 0.00 0.00 50 1012.6
20160531173001 78 105 0.9 5.2 0.00 0.00 0.00 49 1012.7
20160531171502 78 46 0.9 6.1 0.00 0.00 0.00 50 1012.9
20160531165954 77 105 0.9 5.2 0.00 0.00 0.00 50 1013.1
20160531164449 77 84 0.0 7.8 0.00 0.00 0.00 51 1012.9
20160531162950 75 122 0.9 6.1 0.00 0.00 0.00 55 1012.9
20160531161446 74 105 0.9 6.1 0.00 0.00 0.00 57 1013.0
20160531155943 74 94 0.9 5.2 0.00 0.00 0.00 57 1013.0
20160531154444 75 56 0.9 5.2 0.00 0.00 0.00 55 1013.0
20160531152942 74 85 0.0 5.2 0.00 0.00 0.00 58 1013.2
20160531151441 73 79 0.0 5.2 0.00 0.00 0.00 57 1013.2
20160531145932 73 80 0.9 3.5 0.00 0.00 0.00 57 1013.4
20160531144429 73 93 0.0 3.5 0.00 0.00 0.00 58 1013.4
20160531142916 73 94 0.0 3.5 0.00 0.00 0.00 58 1013.7
20160531141403 73 69 0.0 3.5 0.00 0.00 0.00 57 1013.4
20160531135904 72 117 0.0 2.6 0.00 0.00 0.00 59 1013.8
20160531134355 71 102 0.0 3.5 0.00 0.00 0.00 61 1013.8
20160531132856 71 91 0.0 3.5 0.00 0.00 0.00 62 1013.9
20160531131350 71 67 0.9 5.2 0.00 0.00 0.00 60 1013.7
20160531125846 72 100 0.0 5.2 0.00 0.00 0.00 60 1013.4
20160531124332 70 71 0.9 5.2 0.00 0.00 0.00 62 1013.3
20160531122828 70 30 0.9 5.2 0.00 0.00 0.00 62 1013.2
20160531121329 70 88 0.0 3.5 0.00 0.00 0.00 66 1013.4
20160531115749 69 104 0.0 4.3 0.00 0.00 0.00 66 1013.2
20160531114249 69 115 0.0 4.3 0.00 0.00 0.00 65 1013.1
20160531112746 70 36 0.0 3.5 0.00 0.00 0.00 64 1012.8
20160531111244 69 107 0.0 2.6 0.00 0.00 0.00 67 1012.9
20160531105734 68 107 0.0 0.9 0.00 0.00 0.00 70 1012.9
20160531104224 67 96 0.0 0.0 0.00 0.00 0.00 73 1012.9
20160531102720 66 96 0.0 0.0 0.00 0.00 0.00 76 1012.9
20160531101210 66 94 0.0 3.5 0.00 0.00 0.00 78 1012.9
20160531095706 66 110 0.0 0.0 0.00 0.00 0.00 78 1012.8
20160531094206 66 109 0.0 0.9 0.00 0.00 0.00 77 1012.6
20160531092658 66 109 0.0 0.0 0.00 0.00 0.00 76 1012.6
20160531091154 66 109 0.0 0.0 0.00 0.00 0.00 75 1012.5
20160531085640 66 109 0.0 0.0 0.00 0.00 0.00 73 1012.5
20160531084136 66 111 0.0 0.0 0.00 0.00 0.00 72 1012.6
20160531082626 66 111 0.0 3.5 0.00 0.00 0.00 71 1012.9
20160531081112 66 112 0.0 2.6 0.00 0.00 0.00 70 1012.9
20160531075604 66 119 0.0 2.6 0.00 0.00 0.00 71 1013.0
20160531074100 66 105 0.0 2.6 0.00 0.00 0.00 71 1013.0
20160531072550 67 112 0.9 3.5 0.00 0.00 0.00 70 1013.0
20160531071046 67 127 0.9 4.3 0.00 0.00 0.00 70 1012.9
20160531065536 67 92 0.0 2.6 0.00 0.00 0.00 69 1013.0
20160531064031 67 84 0.0 3.5 0.00 0.00 0.00 68 1013.0
20160531062519 67 66 0.0 5.2 0.00 0.00 0.00 67 1013.0
20160531060957 67 74 0.0 4.3 0.00 0.00 0.00 66 1013.0
20160531055457 67 77 0.0 4.3 0.00 0.00 0.00 65 1013.0
20160531053954 68 80 0.0 2.6 0.00 0.00 0.00 63 1012.8
20160531052445 68 40 0.0 5.2 0.00 0.00 0.00 63 1012.9
20160531050945 68 106 0.0 4.3 0.00 0.00 0.00 63 1012.9
20160531045437 68 71 0.0 8.7 0.00 0.00 0.00 61 1012.9
20160531043935 68 49 0.9 7.0 0.00 0.00 0.00 60 1012.8
20160531042425 68 65 0.0 7.0 0.00 0.00 0.00 60 1012.8
20160531040925 69 102 0.0 0.0 0.00 0.00 0.00 60 1012.8
20160531035357 69 99 0.0 3.5 0.00 0.00 0.00 59 1012.8
20160531033857 69 48 0.0 2.6 0.00 0.00 0.00 59 1012.7